Weather History for Elizabethton, TN

Change the Weather History Date:

Tuesday, June 4, 2013

  Actual Average (KTRI) Record (KTRI)
Temperature  
Mean Temperature 68 °F 69 °F  
Max Temperature 80 °F 81 °F 93 °F (2002)
Min Temperature 55 °F 57 °F 42 °F (1956)
Degree Days  
Heating Degree Days 0 1  
Month to date heating degree days 4  
Since 1 June heating degree days 4  
Since 1 July heating degree days 4367  
Cooling Degree Days 2 5  
Month to date cooling degree days 18  
Year to date cooling degree days 91  
Since 1 June cooling degree days 18  
Growing Degree Days 18 (Base 50)    
Moisture  
Dew Point 58 °F    
Average Humidity 73    
Maximum Humidity 100    
Minimum Humidity 48    
Precipitation  
Precipitation 0.00 in 0.13 in 1.43 in (1982)
Month to date precipitation 0.52  
Year to date precipitation 17.91  
Snow  
Snow 0.00 in 0.00 in - ()
Month to date snowfall 0.0  
Since 1 June snowfall 0.0  
Since 1 July snowfall 13.3  
Snow Depth -    
Sea Level Pressure  
Sea Level Pressure 30.06 in    
Wind  
Wind Speed 1 mph (ENE)    
Max Wind Speed 9 mph    
Max Gust Speed -    
Visibility 10 miles    
Events      
T = Trace of Precipitation, MM = Missing Value Source: NWS Daily Summary

Daily Weather History Graph

Daily Weather History Graph

Search for Another Location

Airport:

Trip Planner

Search our weather history database for the weather conditions in past years. The results will help you decide how hot, cold, wet, or windy it might be!

Date:

Astronomy

Jun. 04, 2013 Rise Set
Actual Time 6:11 AM EDT 8:43 PM EDT
Civil Twilight 5:41 AM EDT 9:13 PM EDT
Nautical Twilight 5:04 AM EDT 9:50 PM EDT
Astronomical Twilight 4:22 AM EDT 10:31 PM EDT
Moon 3:34 AM EDT (6/4) 5:15 PM EDT (6/4)
Length of Visible Light 15h 31m
Length of Day
14h 31m
Waning Crescent, 14% of the Moon is Illuminated
Jun 4
Waning Crescent
Jun 8
New
Jun 16
First Quarter
Jun 23
Full
Jun 30
Last Quarter

Hourly Weather History & Observations

Time (EDT) Temp. Heat Index Dew Point Humidity Pressure Visibility Wind Dir Wind Speed Gust Speed Precip Events Conditions
12:15 AM 60.8 °F - 59.0 °F 94% 30.04 in 10.0 mi Calm Calm - N/A   Scattered Clouds
12:35 AM 59.0 °F - 57.2 °F 94% 30.04 in 10.0 mi Calm Calm - N/A   Clear
12:55 AM 57.2 °F - 57.2 °F 100% 30.04 in 9.0 mi Calm Calm - N/A   Clear
1:15 AM 57.2 °F - 57.2 °F 100% 30.04 in 8.0 mi Calm Calm - N/A   Clear
1:35 AM 57.2 °F - 57.2 °F 100% 30.05 in 9.0 mi Calm Calm - N/A   Partly Cloudy
1:55 AM 57.2 °F - 57.2 °F 100% 30.04 in 7.0 mi Calm Calm - N/A   Partly Cloudy
2:15 AM 57.2 °F - 55.4 °F 94% 30.04 in 8.0 mi Calm Calm - N/A   Clear
2:35 AM 57.2 °F - 55.4 °F 94% 30.04 in 10.0 mi East 3.5 mph - N/A   Clear
2:55 AM 57.2 °F - 55.4 °F 94% 30.03 in 10.0 mi Calm Calm - N/A   Clear
3:15 AM 57.2 °F - 55.4 °F 94% 30.04 in 10.0 mi Calm Calm - N/A   Clear
3:35 AM 55.4 °F - 55.4 °F 100% 30.03 in 10.0 mi Calm Calm - N/A   Clear
3:55 AM 55.4 °F - 55.4 °F 100% 30.03 in 8.0 mi Calm Calm - N/A   Clear
4:15 AM 55.4 °F - 55.4 °F 100% 30.03 in 10.0 mi Calm Calm - N/A   Clear
4:35 AM 55.4 °F - 55.4 °F 100% 30.03 in 10.0 mi Calm Calm - N/A   Partly Cloudy
4:55 AM 55.4 °F - 55.4 °F 100% 30.03 in 8.0 mi Calm Calm - N/A   Clear
5:15 AM 55.4 °F - 55.4 °F 100% 30.04 in 8.0 mi Calm Calm - N/A   Clear
5:35 AM 55.4 °F - 53.6 °F 94% 30.05 in 6.0 mi Calm Calm - N/A   Scattered Clouds
5:55 AM 55.4 °F - 55.4 °F 100% 30.05 in 9.0 mi Calm Calm - N/A   Mostly Cloudy
6:15 AM 55.4 °F - 55.4 °F 100% 30.06 in 8.0 mi Calm Calm - N/A   Overcast
6:35 AM 55.4 °F - 55.4 °F 100% 30.06 in 8.0 mi Calm Calm - N/A   Overcast
6:55 AM 57.2 °F - 55.4 °F 94% 30.06 in 8.0 mi Calm Calm - N/A   Mostly Cloudy
7:15 AM 59.0 °F - 55.4 °F 88% 30.07 in 9.0 mi Calm Calm - N/A   Mostly Cloudy
7:35 AM 60.8 °F - 55.4 °F 82% 30.07 in 10.0 mi Calm Calm - N/A   Partly Cloudy
7:55 AM 60.8 °F - 57.2 °F 88% 30.08 in 10.0 mi Calm Calm - N/A   Clear
8:15 AM 62.6 °F - 57.2 °F 82% 30.08 in 10.0 mi Calm Calm - N/A   Clear
8:35 AM 62.6 °F - 57.2 °F 82% 30.08 in 10.0 mi Calm Calm - N/A   Clear
8:55 AM 64.4 °F - 57.2 °F 77% 30.09 in 10.0 mi Calm Calm - N/A   Clear
9:15 AM 69.8 °F - 59.0 °F 68% 30.09 in 10.0 mi Calm Calm - N/A   Clear
9:35 AM 71.6 °F - 57.2 °F 60% 30.09 in 10.0 mi Calm Calm - N/A   Partly Cloudy
9:55 AM 71.6 °F - 57.2 °F 60% 30.09 in 10.0 mi Calm Calm - N/A   Clear
10:15 AM 71.6 °F - 57.2 °F 60% 30.09 in 10.0 mi WSW 3.5 mph - N/A   Clear
10:35 AM 73.4 °F - 57.2 °F 57% 30.09 in 10.0 mi Calm Calm - N/A   Clear
10:55 AM 75.2 °F - 59.0 °F 57% 30.08 in 10.0 mi Variable 3.5 mph - N/A   Clear
11:15 AM 75.2 °F - 57.2 °F 53% 30.08 in 10.0 mi Calm Calm - N/A   Clear
11:35 AM 73.4 °F - 60.8 °F 65% 30.08 in 10.0 mi Variable 3.5 mph - N/A   Clear
11:55 AM 75.2 °F - 60.8 °F 61% 30.07 in 10.0 mi South 3.5 mph - N/A   Clear
12:15 PM 75.2 °F - 57.2 °F 53% 30.07 in 10.0 mi NW 6.9 mph - N/A   Mostly Cloudy
12:35 PM 78.8 °F - 59.0 °F 51% 30.07 in 10.0 mi Calm Calm - N/A   Mostly Cloudy
12:55 PM 73.4 °F - 57.2 °F 57% 30.07 in 10.0 mi East 3.5 mph - N/A   Mostly Cloudy
1:15 PM 77.0 °F - 57.2 °F 50% 30.07 in 10.0 mi Calm Calm - N/A   Scattered Clouds
1:35 PM 77.0 °F - 57.2 °F 50% 30.06 in 10.0 mi Calm Calm - N/A   Scattered Clouds
1:55 PM 77.0 °F - 59.0 °F 54% 30.06 in 10.0 mi Variable 4.6 mph - N/A   Scattered Clouds
2:15 PM 77.0 °F - 60.8 °F 57% 30.06 in 10.0 mi ESE 9.2 mph - N/A   Partly Cloudy
2:35 PM 75.2 °F - 60.8 °F 61% 30.06 in 10.0 mi ESE 6.9 mph - N/A   Clear
2:55 PM 78.8 °F - 59.0 °F 51% 30.06 in 10.0 mi Calm Calm - N/A   Clear
3:15 PM 80.6 °F 81.1 °F 59.0 °F 48% 30.06 in 10.0 mi Calm Calm - N/A   Mostly Cloudy
3:35 PM 75.2 °F - 59.0 °F 57% 30.06 in 10.0 mi NE 3.5 mph - N/A   Overcast
3:55 PM 78.8 °F - 59.0 °F 51% 30.05 in 10.0 mi NW 5.8 mph - N/A   Partly Cloudy
4:15 PM 80.6 °F 81.5 °F 60.8 °F 51% 30.04 in 10.0 mi Variable 4.6 mph - N/A   Clear
4:35 PM 78.8 °F - 60.8 °F 54% 30.04 in 10.0 mi ENE 3.5 mph - N/A   Mostly Cloudy
4:55 PM 78.8 °F - 59.0 °F 51% 30.04 in 10.0 mi ENE 4.6 mph - N/A   Partly Cloudy
5:15 PM 78.8 °F - 59.0 °F 51% 30.04 in 10.0 mi Calm Calm - N/A   Scattered Clouds
5:35 PM 78.8 °F - 59.0 °F 51% 30.03 in 10.0 mi Variable 3.5 mph - N/A   Scattered Clouds
5:55 PM 77.0 °F - 60.8 °F 57% 30.04 in 10.0 mi Variable 3.5 mph - N/A   Clear
6:15 PM 77.0 °F - 59.0 °F 54% 30.04 in 10.0 mi East 6.9 mph - N/A   Clear
6:35 PM 77.0 °F - 60.8 °F 57% 30.04 in 10.0 mi ESE 3.5 mph - N/A   Clear
6:55 PM 77.0 °F - 59.0 °F 54% 30.04 in 10.0 mi East 3.5 mph - N/A   Clear
7:15 PM 75.2 °F - 60.8 °F 61% 30.04 in 10.0 mi NE 4.6 mph - N/A   Partly Cloudy
7:35 PM 75.2 °F - 60.8 °F 61% 30.05 in 10.0 mi ESE 6.9 mph - N/A   Mostly Cloudy
7:55 PM 75.2 °F - 59.0 °F 57% 30.05 in 10.0 mi East 4.6 mph - N/A   Partly Cloudy
8:15 PM 71.6 °F - 60.8 °F 69% 30.05 in 10.0 mi NNE 4.6 mph - N/A   Clear
8:35 PM 69.8 °F - 60.8 °F 73% 30.06 in 10.0 mi NE 4.6 mph - N/A   Clear
8:55 PM 69.8 °F - 59.0 °F 68% 30.06 in 10.0 mi ENE 5.8 mph - N/A   Clear
9:15 PM 69.8 °F - 59.0 °F 68% 30.07 in 10.0 mi ENE 3.5 mph - N/A   Clear
9:35 PM 69.8 °F - 59.0 °F 68% 30.08 in 10.0 mi ENE 4.6 mph - N/A   Clear
9:55 PM 69.8 °F - 59.0 °F 68% 30.09 in 10.0 mi NE 4.6 mph - N/A   Clear
10:15 PM 68.0 °F - 59.0 °F 73% 30.10 in 10.0 mi ENE 3.5 mph - N/A   Clear
10:35 PM 66.2 °F - 57.2 °F 73% 30.10 in 10.0 mi NE 3.5 mph - N/A   Partly Cloudy
10:55 PM 68.0 °F - 57.2 °F 68% 30.11 in 10.0 mi ENE 4.6 mph - N/A   Clear
11:15 PM 66.2 °F - 57.2 °F 73% 30.11 in 10.0 mi East 3.5 mph - N/A   Partly Cloudy
11:35 PM 66.2 °F - 57.2 °F 73% 30.11 in 10.0 mi ENE 4.6 mph - N/A   Mostly Cloudy
11:55 PM 66.2 °F - 57.2 °F 73% 30.11 in 10.0 mi ENE 4.6 mph - N/A   Scattered Clouds